Lexington Weather

Lexington, Massachusetts, USA

43°F
4/22/2024 8:44am 
  • Lexington Conditions: Clear
  • Temperature: 43.3°F / 6.3°CWarmer 3.7°F than last hour.
  • Dew Point: 27.3°FDecreased 2.2°Fsince last hour.
  • Relative Humidity: 53%Decreased 14.0% since last hour.
  • Wind: Calm, 10-min avg: Calm, gust: None
  • Barometer: 29.96 inRising 0.02  inHg/hr Rising Slowly
  • Visibility: 10 miles
  • Rain Today: 0.00 in
  •   

Regional Weather Roundup
for Boston, MA

        
000
ASUS41 KBOX 180910
RWRBOX

REGIONAL WEATHER ROUNDUP
NATIONAL WEATHER SERVICE BOSTON/NORTON MA
500 AM EDT THU APR 18 2024

NOTE:  "FAIR" INDICATES FEW OR NO CLOUDS BELOW 12,000 FEET WITH NO 
SIGNIFICANT WEATHER AND/OR OBSTRUCTIONS TO VISIBILITY.

MAZALL-181000-
EASTERN MASSACHUSETTS
  
CITY           SKY/WX    TMP DP  RH WIND       PRES   REMARKS
BOSTON         CLOUDY    46  37  71 E14       30.13S                  
BEVERLY        CLOUDY    45  36  70 NE9       30.13S                  
LAWRENCE       CLOUDY    45  37  73 NE8       30.15S                  
BEDFORD        CLOUDY    47  32  56 E8        30.11S                  
NORWOOD        CLOUDY    50  30  46 VRB7G16   30.11S                  
MARSHFIELD     CLOUDY    46  39  76 NE9       30.13R                  
PLYMOUTH       CLOUDY    47  31  53 E9        30.10S                  
TAUNTON        CLOUDY    50  30  46 E8        30.11R                  
NEW BEDFORD      N/A     49  29  46 E8        30.10R                  
$$

MAZALL-181000-
CAPE COD AND THE ISLANDS
  
CITY           SKY/WX    TMP DP  RH WIND       PRES   REMARKS
FALMOUTH       CLOUDY    46  28  49 SE12      30.11R                  
HYANNIS        CLOUDY    46  29  51 E7        30.10R                  
CHATHAM        CLOUDY    46  34  62 E10       30.12F                  
PROVINCETOWN   CLOUDY    45  38  76 E10       30.14S                  
NANTUCKET      CLOUDY    44  36  73 E13       30.10F                  
MARTHAS VNYRD  CLOUDY    47  35  63 E12G18    30.10R                  
$$
 
MAZALL-181000-
CENTRAL AND WESTERN MASSACHUSETTS
  
CITY           SKY/WX    TMP DP  RH WIND       PRES   REMARKS
WORCESTER      CLOUDY    45  32  60 E8        30.07S                  
FITCHBURG      CLOUDY    47  35  63 NE5       30.11S                  
ORANGE         CLOUDY    46  36  68 CALM      30.09F                  
SPRINGFIELD    CLOUDY    45  41  87 NW3       30.06S                  
WESTFIELD      LGT RAIN  44  40  85 N5        30.08S                  
NORTH ADAMS    LGT RAIN  47  38  71 E20G32    30.04R                  
PITTSFIELD     CLOUDY    41  38  89 E9        30.02S                  
$$
 
RIZALL-181000-
RHODE ISLAND
  
CITY           SKY/WX    TMP DP  RH WIND       PRES   REMARKS
PROVIDENCE     CLOUDY    46  39  76 E5        30.11R                  
NEWPORT        CLOUDY    43  38  82 E6        30.09R                  
BLOCK ISLAND   LGT RAIN  42  39  89 E16G22    30.06F                  
SMITHFIELD     CLOUDY    45  35  68 E7        30.10R                  
WESTERLY       RAIN      43  40  89 NE10      30.07S FOG              
$$
 
CTZALL-181000-
CONNECTICUT
  
CITY           SKY/WX    TMP DP  RH WIND       PRES   REMARKS
BRADLEY INTL   CLOUDY    46  41  82 N5        30.08R                  
HARTFORD       RAIN      44  41  89 E10       30.07S FOG              
PLAINVILLE     LGT RAIN  44  43  98 NE5       30.05F FOG              
BRIDGEPORT     LGT RAIN  45  43  93 E23G36    30.02S                  
DANBURY        LGT RAIN  46  42  86 E10       30.01S FOG              
GROTON         LGT RAIN  44  42  93 E16G22    30.06S                  
NEW HAVEN      LGT RAIN  46  44  93 E13G22    30.04R FOG              
CHESTER        CLOUDY    43  43 100 E12G21    30.04S                  
MERIDEN        LGT RAIN  44  40  85 E6        30.05S                  
WILLIMANTIC    LGT RAIN  42  40  92 NE7       30.08S FOG              
OXFORD         RAIN      42  41  96 E13G18    30.03R FOG              
$$

MEZ002-015-021-024-NHZ003-005-008-011-012-014-VTZ005-008-181000-
NORTHERN NEW ENGLAND
  
CITY           SKY/WX    TMP DP  RH WIND       PRES   REMARKS
PORTLAND ME    MOCLDY    39  34  82 NE6       30.18S                  
BANGOR ME      PTCLDY    33  25  72 N3        30.21F                  
CONCORD NH     CLOUDY    43  34  70 E5        30.14R                  
MANCHESTER NH  CLOUDY    45  34  65 NE8       30.12S                  
NASHUA NH      CLOUDY    45  39  79 E8        30.13S                  
PORTSMOUTH NH  CLOUDY    45  38  77 NE7       30.15S                  
JAFFREY NH     CLOUDY    45  34  65 CALM      30.09F                  
KEENE NH       CLOUDY    46  37  71 NW3       30.09S                  
BURLINGTON VT  CLOUDY    49  34  56 SE10      30.01S                  
MT. WASHINGTON PTCLDY    36  -2  20 E3          N/A                   
$$

NYZ052-076-181000-
EASTERN NEW YORK
  
CITY           SKY/WX    TMP DP  RH WIND       PRES   REMARKS
ALBANY         CLOUDY    48  43  82 S10       30.03R                  
NEW YORK CITY  DRIZZLE   47  45  93 NE13      29.98R FOG              
$$
 
ANZALL-181000-
MARINE OBSERVATIONS
  
STATION/POSITION TIME  TEMP    WIND        PRES    VSBY  WAVE
                       AIR SEA DIR/SP/G                  HT/PER
                 (UTC) (F)     (DEG/KT/KT) (MB)    (MI)  (FT/S)
BOSTON BUOY      0850   45      60/ 14/ 16 1020.3R         2/ 8
BUZZARDS BAY     0800   44     110/ 13/ 14 1019.0F
NANTUCKET SOUND  0850   46 47  100/ 14/ 17 1019.2R         1/ 3
MASS BAY-STELLWA NOT AVBL
ISLE OF SHOALS   0800   44      60/ 18/ 18 1020.2F
S OF BLOCK IS    0856      45                N/A           4/ 4
$$

......................KEY.........................
  SKY/WX - SKY CONDITION/PRESENT WEATHER
  TMP    - TEMPERATURE IN FAHRENHEIT
  DWPT   - DEWPOINT IN FAHRENHEIT
  RH     - RELATIVE HUMIDITY IN PERCENT
  WIND   - DIRECTION AND SPEED IN MPH
  PRES   - MEAN SEA LEVEL PRESSURE IN INCHES OF HG
  WCI    - WIND CHILL INDEX
  VSB    - VISIBILITY IN MILES
  HX     - HEAT INDEX
  TC     - TEMPERATURE IN CELSIUS
  VRB    - VARIABLE WIND DIRECTION
  N/A    - NOT AVAILABLE
  
      

Other recent Regional Weather Roundups

Mon Apr 22, 8:10am EDT

Mon Apr 22, 7:10am EDT

Mon Apr 22, 6:10am EDT

Mon Apr 22, 5:10am EDT

Mon Apr 22, 4:10am EDT

Mon Apr 22, 3:10am EDT

Mon Apr 22, 2:10am EDT

Mon Apr 22, 1:10am EDT

Mon Apr 22, 12:10am EDT

Sun Apr 21, 11:10pm EDT

Sun Apr 21, 10:10pm EDT

Sun Apr 21, 9:10pm EDT

Sun Apr 21, 8:10pm EDT

Sun Apr 21, 7:10pm EDT

Sun Apr 21, 6:10pm EDT

Sun Apr 21, 5:10pm EDT

Sun Apr 21, 4:10pm EDT

Sun Apr 21, 3:10pm EDT

Sun Apr 21, 2:10pm EDT

Sun Apr 21, 1:10pm EDT

Sun Apr 21, 12:10pm EDT

Sun Apr 21, 11:10am EDT

Sun Apr 21, 10:10am EDT

Sun Apr 21, 9:10am EDT

Sun Apr 21, 8:10am EDT

Sun Apr 21, 7:10am EDT

Sun Apr 21, 6:10am EDT

Sun Apr 21, 5:10am EDT

Sun Apr 21, 4:10am EDT

Sun Apr 21, 3:10am EDT

Sun Apr 21, 2:10am EDT

Sun Apr 21, 1:10am EDT

Sun Apr 21, 12:10am EDT

Sat Apr 20, 11:10pm EDT

Sat Apr 20, 10:10pm EDT

Sat Apr 20, 9:10pm EDT

Sat Apr 20, 8:10pm EDT

Sat Apr 20, 7:10pm EDT

Sat Apr 20, 6:10pm EDT

Sat Apr 20, 5:10pm EDT

Sat Apr 20, 4:10pm EDT

Sat Apr 20, 3:10pm EDT

Sat Apr 20, 2:10pm EDT

Sat Apr 20, 1:10pm EDT

Sat Apr 20, 12:10pm EDT

Sat Apr 20, 11:10am EDT

Sat Apr 20, 10:10am EDT

Sat Apr 20, 9:10am EDT

Sat Apr 20, 8:10am EDT

Sat Apr 20, 7:10am EDT

Sat Apr 20, 6:10am EDT

Sat Apr 20, 5:10am EDT

Sat Apr 20, 4:10am EDT

Sat Apr 20, 3:10am EDT

Sat Apr 20, 2:10am EDT

Sat Apr 20, 1:10am EDT

Sat Apr 20, 12:10am EDT

Fri Apr 19, 11:10pm EDT

Fri Apr 19, 10:10pm EDT

Fri Apr 19, 9:10pm EDT

Fri Apr 19, 8:10pm EDT

Fri Apr 19, 7:10pm EDT

Fri Apr 19, 6:10pm EDT

Fri Apr 19, 5:10pm EDT

Fri Apr 19, 4:10pm EDT

Fri Apr 19, 3:10pm EDT

Fri Apr 19, 2:10pm EDT

Fri Apr 19, 1:10pm EDT

Fri Apr 19, 12:10pm EDT

Fri Apr 19, 11:10am EDT

Fri Apr 19, 10:10am EDT

Fri Apr 19, 9:10am EDT

Fri Apr 19, 8:10am EDT

Fri Apr 19, 7:10am EDT

Fri Apr 19, 6:10am EDT

Fri Apr 19, 5:10am EDT

Fri Apr 19, 4:10am EDT

Fri Apr 19, 3:10am EDT

Fri Apr 19, 2:10am EDT

Fri Apr 19, 1:10am EDT

Fri Apr 19, 12:10am EDT

Thu Apr 18, 11:10pm EDT

Thu Apr 18, 10:10pm EDT

Thu Apr 18, 9:10pm EDT

Thu Apr 18, 8:10pm EDT

Thu Apr 18, 7:10pm EDT

Thu Apr 18, 6:10pm EDT

Thu Apr 18, 5:10pm EDT

Thu Apr 18, 4:10pm EDT

Thu Apr 18, 3:10pm EDT

Thu Apr 18, 2:10pm EDT

Thu Apr 18, 1:10pm EDT

Thu Apr 18, 12:10pm EDT

Thu Apr 18, 11:10am EDT

Thu Apr 18, 10:10am EDT

Thu Apr 18, 9:10am EDT

Thu Apr 18, 8:10am EDT

Thu Apr 18, 7:10am EDT

Thu Apr 18, 6:10am EDT

Thu Apr 18, 4:10am EDT

Thu Apr 18, 3:10am EDT

Thu Apr 18, 2:10am EDT

Thu Apr 18, 1:10am EDT

Thu Apr 18, 12:10am EDT

Wed Apr 17, 11:10pm EDT

Wed Apr 17, 10:10pm EDT

Wed Apr 17, 9:10pm EDT

Wed Apr 17, 8:10pm EDT

Wed Apr 17, 7:10pm EDT

Wed Apr 17, 6:10pm EDT

Wed Apr 17, 5:10pm EDT

Wed Apr 17, 4:10pm EDT

Wed Apr 17, 3:10pm EDT

Wed Apr 17, 2:10pm EDT

Wed Apr 17, 1:10pm EDT

Wed Apr 17, 12:10pm EDT

Wed Apr 17, 11:10am EDT

Wed Apr 17, 10:10am EDT

Wed Apr 17, 9:10am EDT

Wed Apr 17, 8:10am EDT

Wed Apr 17, 7:10am EDT

Wed Apr 17, 6:10am EDT

Wed Apr 17, 5:10am EDT

Wed Apr 17, 4:10am EDT

Wed Apr 17, 3:10am EDT

Wed Apr 17, 2:10am EDT

Wed Apr 17, 1:10am EDT

Wed Apr 17, 12:10am EDT

Tue Apr 16, 11:10pm EDT

Tue Apr 16, 10:10pm EDT

Tue Apr 16, 9:10pm EDT

Tue Apr 16, 8:10pm EDT

Tue Apr 16, 7:10pm EDT

Tue Apr 16, 6:10pm EDT

Tue Apr 16, 5:10pm EDT

Tue Apr 16, 4:10pm EDT

Tue Apr 16, 3:10pm EDT

Tue Apr 16, 2:10pm EDT

Tue Apr 16, 1:10pm EDT

Tue Apr 16, 12:10pm EDT

Tue Apr 16, 11:10am EDT

Tue Apr 16, 10:10am EDT

Tue Apr 16, 9:10am EDT

Tue Apr 16, 8:10am EDT

Tue Apr 16, 7:10am EDT

Tue Apr 16, 6:10am EDT

Tue Apr 16, 5:10am EDT

Tue Apr 16, 4:10am EDT

Tue Apr 16, 3:10am EDT

Tue Apr 16, 2:10am EDT

Tue Apr 16, 1:10am EDT

Tue Apr 16, 12:10am EDT

Mon Apr 15, 11:10pm EDT

Mon Apr 15, 10:10pm EDT

Mon Apr 15, 9:10pm EDT

Mon Apr 15, 8:10pm EDT

Mon Apr 15, 7:10pm EDT

Mon Apr 15, 6:10pm EDT

Mon Apr 15, 5:10pm EDT

Mon Apr 15, 4:10pm EDT

Mon Apr 15, 3:10pm EDT

Mon Apr 15, 2:10pm EDT

Mon Apr 15, 1:10pm EDT

Mon Apr 15, 12:10pm EDT

Mon Apr 15, 11:10am EDT

Mon Apr 15, 10:10am EDT

Mon Apr 15, 9:10am EDT